Time,TemperatureF,DewpointF,PressureIn,WindDirection,WindDirectionDegrees,WindSpeedMPH,WindSpeedGustMPH,Humidity,HourlyPrecipIn,Conditions,Clouds,dailyrainin,SoftwareType,DateUTC
2013-04-15 00:00:00,63.9,6.3,30.06,North,0,0.0,0.0,1,0.00,,,0.00,WUHU216HW,2013-04-15 04:00:00,
2013-04-15 00:01:00,63.9,6.3,30.06,North,0,0.0,0.0,1,0.00,,,0.00,WUHU216HW,2013-04-15 04:01:00,
2013-04-15 00:06:00,64.1,6.4,30.06,North,0,0.0,0.0,1,0.00,,,0.00,WUHU216HW,2013-04-15 04:06:00,
2013-04-15 00:11:00,64.3,6.6,30.06,North,0,0.0,0.0,1,0.00,,,0.00,WUHU216HW,2013-04-15 04:11:00,
2013-04-15 00:16:00,64.4,6.7,30.07,North,0,0.0,0.0,1,0.00,,,0.00,WUHU216HW,2013-04-15 04:16:00,
2013-04-15 00:21:00,64.4,6.7,30.07,North,0,0.0,0.0,1,0.00,,,0.00,WUHU216HW,2013-04-15 04:21:00,
2013-04-15 00:27:00,64.8,6.9,30.07,North,0,0.0,0.0,1,0.00,,,0.00,WUHU216HW,2013-04-15 04:27:00,
2013-04-15 00:32:00,65.0,7.1,30.07,North,0,0.0,0.0,1,0.00,,,0.00,WUHU216HW,2013-04-15 04:32:00,
2013-04-15 00:37:00,65.2,7.2,30.07,North,0,0.0,0.0,1,0.00,,,0.00,WUHU216HW,2013-04-15 04:37:00,
2013-04-15 00:42:00,65.0,7.1,30.07,North,0,0.0,0.0,2,0.00,,,0.00,WUHU216HW,2013-04-15 04:42:00,
2013-04-15 00:47:00,65.2,7.2,30.07,North,0,0.0,0.0,8,0.00,,,0.00,WUHU216HW,2013-04-15 04:47:00,
2013-04-15 00:52:00,65.7,7.7,30.07,North,0,0.0,0.0,9,0.00,,,0.00,WUHU216HW,2013-04-15 04:52:00,
2013-04-15 00:57:00,65.7,9.3,30.06,North,0,0.0,0.0,11,0.00,,,0.00,WUHU216HW,2013-04-15 04:57:00,
2013-04-15 01:02:00,65.5,7.6,30.05,North,0,0.0,0.0,10,0.00,,,0.00,WUHU216HW,2013-04-15 05:02:00,
2013-04-15 01:08:00,65.3,9.0,30.04,North,0,0.0,0.0,11,0.00,,,0.00,WUHU216HW,2013-04-15 05:08:00,
2013-04-15 01:13:00,65.3,7.4,30.04,North,0,0.0,0.0,10,0.00,,,0.00,WUHU216HW,2013-04-15 05:13:00,
2013-04-15 01:18:00,65.0,7.1,30.04,North,0,0.0,0.0,8,0.00,,,0.00,WUHU216HW,2013-04-15 05:18:00,
2013-04-15 01:23:00,65.0,7.1,30.03,North,0,0.0,0.0,8,0.00,,,0.00,WUHU216HW,2013-04-15 05:23:00,
2013-04-15 01:28:00,64.8,6.9,30.02,North,0,0.0,0.0,8,0.00,,,0.00,WUHU216HW,2013-04-15 05:28:00,
2013-04-15 01:33:00,64.8,6.9,30.02,North,0,0.0,0.0,10,0.01,,,0.00,WUHU216HW,2013-04-15 05:33:00,
2013-04-15 01:38:00,64.8,6.9,30.02,North,0,0.0,0.0,8,0.01,,,0.02,WUHU216HW,2013-04-15 05:38:00,
2013-04-15 01:43:00,64.8,6.9,30.01,North,0,0.0,0.0,8,0.01,,,0.02,WUHU216HW,2013-04-15 05:43:00,
2013-04-15 01:48:00,64.6,6.9,30.01,North,0,0.0,0.0,8,0.01,,,0.02,WUHU216HW,2013-04-15 05:48:00,
2013-04-15 01:54:00,64.8,6.9,30.01,North,0,0.0,0.0,8,0.01,,,0.02,WUHU216HW,2013-04-15 05:54:00,
2013-04-15 01:59:00,64.6,6.9,30.01,North,0,0.0,0.0,8,0.02,,,0.02,WUHU216HW,2013-04-15 05:59:00,
2013-04-15 02:04:00,64.6,6.9,30.01,North,0,0.0,0.0,8,0.02,,,0.02,WUHU216HW,2013-04-15 06:04:00,
2013-04-15 02:09:00,64.6,6.9,30.01,North,0,0.0,0.0,7,0.02,,,0.02,WUHU216HW,2013-04-15 06:09:00,
2013-04-15 02:14:00,64.6,6.9,30.01,North,0,0.0,0.0,7,0.03,,,0.04,WUHU216HW,2013-04-15 06:14:00,
2013-04-15 02:19:00,64.4,6.7,30.01,North,0,0.0,0.0,7,0.03,,,0.04,WUHU216HW,2013-04-15 06:19:00,
2013-04-15 02:24:00,64.3,6.6,30.02,North,0,0.0,0.0,5,0.03,,,0.04,WUHU216HW,2013-04-15 06:24:00,
2013-04-15 02:29:00,64.4,6.7,30.02,North,0,0.0,0.0,5,0.04,,,0.04,WUHU216HW,2013-04-15 06:29:00,
2013-04-15 02:34:00,64.4,6.7,30.02,North,0,0.0,0.0,5,0.03,,,0.04,WUHU216HW,2013-04-15 06:34:00,
2013-04-15 02:39:00,64.4,6.7,30.03,North,0,0.0,0.0,3,0.03,,,0.04,WUHU216HW,2013-04-15 06:39:00,
2013-04-15 02:44:00,64.4,6.7,30.02,North,0,0.0,0.0,5,0.03,,,0.04,WUHU216HW,2013-04-15 06:44:00,
2013-04-15 02:49:00,64.4,6.7,30.02,North,0,0.0,0.0,5,0.04,,,0.04,WUHU216HW,2013-04-15 06:49:00,
2013-04-15 02:54:00,64.1,6.4,30.02,North,0,0.0,0.0,3,0.04,,,0.05,WUHU216HW,2013-04-15 06:54:00,
2013-04-15 02:59:00,63.9,6.3,30.01,North,0,0.0,0.0,3,0.03,,,0.05,WUHU216HW,2013-04-15 06:59:00,
2013-04-15 03:04:00,63.9,6.3,30.02,North,0,0.0,0.0,2,0.04,,,0.07,WUHU216HW,2013-04-15 07:04:00,
2013-04-15 03:06:00,63.9,6.3,30.02,North,0,0.0,0.0,2,0.05,,,0.07,WUHU216HW,2013-04-15 07:06:00,
2013-04-15 03:12:00,63.7,6.1,30.01,North,0,0.0,0.0,1,0.05,,,0.09,WUHU216HW,2013-04-15 07:12:00,
2013-04-15 03:19:00,63.9,6.3,30.01,North,0,0.0,0.0,1,0.07,,,0.11,WUHU216HW,2013-04-15 07:19:00,
2013-04-15 03:25:00,63.7,6.1,30.00,North,0,0.0,0.0,1,0.09,,,0.13,WUHU216HW,2013-04-15 07:25:00,
2013-04-15 03:41:00,63.7,6.1,30.01,North,0,0.0,0.0,1,0.10,,,0.15,WUHU216HW,2013-04-15 07:41:00,
2013-04-15 03:46:00,63.9,6.3,30.01,North,0,0.0,0.0,1,0.14,,,0.19,WUHU216HW,2013-04-15 07:46:00,
2013-04-15 03:48:00,63.9,6.3,30.01,North,0,0.0,0.0,1,0.14,,,0.19,WUHU216HW,2013-04-15 07:48:00,
2013-04-15 03:50:00,63.7,6.1,30.01,North,0,0.0,0.0,1,0.15,,,0.20,WUHU216HW,2013-04-15 07:50:00,
2013-04-15 03:55:00,63.7,6.1,30.02,North,0,0.0,0.0,1,0.16,,,0.22,WUHU216HW,2013-04-15 07:55:00,
2013-04-15 04:00:00,63.9,6.3,30.01,North,0,0.0,0.0,1,0.17,,,0.23,WUHU216HW,2013-04-15 08:00:00,
2013-04-15 04:05:00,63.9,6.3,30.00,North,0,0.0,0.0,1,0.16,,,0.24,WUHU216HW,2013-04-15 08:05:00,
2013-04-15 04:10:00,63.9,6.3,29.99,North,0,0.0,0.0,1,0.17,,,0.26,WUHU216HW,2013-04-15 08:10:00,
2013-04-15 04:15:00,64.1,6.4,29.97,North,0,0.0,0.0,1,0.18,,,0.27,WUHU216HW,2013-04-15 08:15:00,
2013-04-15 04:20:00,64.4,6.7,29.97,North,0,0.0,0.0,1,0.17,,,0.30,WUHU216HW,2013-04-15 08:20:00,
2013-04-15 04:26:00,64.3,6.6,29.96,North,0,0.0,0.0,1,0.16,,,0.30,WUHU216HW,2013-04-15 08:26:00,
2013-04-15 04:31:00,64.3,6.6,29.96,North,0,0.0,0.0,1,0.16,,,0.31,WUHU216HW,2013-04-15 08:31:00,
2013-04-15 04:35:00,64.3,6.6,29.96,North,0,0.0,0.0,1,0.15,,,0.31,WUHU216HW,2013-04-15 08:35:00,
2013-04-15 04:40:00,64.3,6.6,29.96,North,0,0.0,0.0,1,0.15,,,0.31,WUHU216HW,2013-04-15 08:40:00,
2013-04-15 04:42:00,64.3,6.6,29.96,North,0,0.0,0.0,1,0.14,,,0.32,WUHU216HW,2013-04-15 08:42:00,
2013-04-15 04:47:00,64.1,6.4,29.96,North,0,0.0,0.0,1,0.13,,,0.32,WUHU216HW,2013-04-15 08:47:00,
2013-04-15 04:52:00,64.1,6.4,29.96,North,0,0.0,0.0,1,0.11,,,0.32,WUHU216HW,2013-04-15 08:52:00,
2013-04-15 04:57:00,63.9,6.3,29.97,North,0,0.0,0.0,1,0.10,,,0.33,WUHU216HW,2013-04-15 08:57:00,
2013-04-15 05:02:00,63.7,6.1,29.99,North,0,0.0,0.0,1,0.10,,,0.34,WUHU216HW,2013-04-15 09:02:00,
2013-04-15 05:07:00,63.5,6.0,29.99,North,0,0.0,0.0,1,0.09,,,0.34,WUHU216HW,2013-04-15 09:07:00,
2013-04-15 05:12:00,63.4,6.0,29.99,North,0,0.0,0.0,1,0.07,,,0.35,WUHU216HW,2013-04-15 09:12:00,
2013-04-15 05:17:00,63.0,5.7,29.98,North,0,0.0,0.0,1,0.06,,,0.35,WUHU216HW,2013-04-15 09:17:00,
2013-04-15 05:22:00,62.8,5.5,29.98,North,0,0.0,0.0,1,0.07,,,0.37,WUHU216HW,2013-04-15 09:22:00,
2013-04-15 05:27:00,62.8,5.5,29.97,North,0,0.0,0.0,1,0.08,,,0.38,WUHU216HW,2013-04-15 09:27:00,
2013-04-15 05:33:00,62.6,5.4,29.97,North,0,0.0,0.0,1,0.09,,,0.40,WUHU216HW,2013-04-15 09:33:00,
2013-04-15 05:38:00,62.3,5.1,29.97,North,0,0.0,0.0,1,0.09,,,0.41,WUHU216HW,2013-04-15 09:38:00,
2013-04-15 05:43:00,61.9,4.9,29.99,North,0,0.0,0.0,1,0.11,,,0.43,WUHU216HW,2013-04-15 09:43:00,
2013-04-15 05:48:00,62.1,5.0,29.99,North,0,0.0,0.0,1,0.12,,,0.44,WUHU216HW,2013-04-15 09:48:00,
2013-04-15 05:53:00,61.9,4.9,29.98,North,0,0.0,0.0,1,0.13,,,0.46,WUHU216HW,2013-04-15 09:53:00,
2013-04-15 05:58:00,61.7,4.7,29.98,North,0,0.0,0.0,1,0.15,,,0.48,WUHU216HW,2013-04-15 09:58:00,
2013-04-15 06:03:00,61.2,4.2,29.99,North,0,0.0,0.0,1,0.16,,,0.50,WUHU216HW,2013-04-15 10:03:00,
2013-04-15 06:08:00,61.2,4.2,29.97,North,0,0.0,0.0,1,0.17,,,0.52,WUHU216HW,2013-04-15 10:08:00,
2013-04-15 06:13:00,61.4,4.4,29.97,North,0,0.0,0.0,1,0.19,,,0.54,WUHU216HW,2013-04-15 10:13:00,
2013-04-15 06:18:00,61.6,4.5,29.97,North,0,0.0,0.0,1,0.20,,,0.56,WUHU216HW,2013-04-15 10:18:00,
2013-04-15 06:23:00,61.6,4.5,29.97,North,0,0.0,0.0,1,0.20,,,0.57,WUHU216HW,2013-04-15 10:23:00,
2013-04-15 06:29:00,61.6,4.5,29.97,North,0,0.0,0.0,1,0.19,,,0.59,WUHU216HW,2013-04-15 10:29:00,
2013-04-15 06:34:00,61.6,4.5,29.97,North,0,0.0,0.0,1,0.20,,,0.60,WUHU216HW,2013-04-15 10:34:00,
2013-04-15 06:39:00,61.4,4.4,29.96,North,0,0.0,0.0,1,0.19,,,0.63,WUHU216HW,2013-04-15 10:39:00,
2013-04-15 06:44:00,61.2,4.2,29.96,North,0,0.0,0.0,1,0.21,,,0.65,WUHU216HW,2013-04-15 10:44:00,
2013-04-15 06:49:00,61.4,4.4,29.94,North,0,0.0,0.0,1,0.20,,,0.65,WUHU216HW,2013-04-15 10:49:00,
2013-04-15 06:54:00,61.4,4.4,29.94,North,0,0.0,0.0,1,0.20,,,0.67,WUHU216HW,2013-04-15 10:54:00,
2013-04-15 06:59:00,61.6,4.5,29.94,North,0,0.0,0.0,1,0.20,,,0.70,WUHU216HW,2013-04-15 10:59:00,
2013-04-15 07:04:00,61.6,4.5,29.94,North,0,0.0,0.0,1,0.18,,,0.70,WUHU216HW,2013-04-15 11:04:00,
2013-04-15 07:09:00,61.7,4.7,29.95,North,0,0.0,0.0,1,0.18,,,0.72,WUHU216HW,2013-04-15 11:09:00,
2013-04-15 07:14:00,61.9,4.9,29.94,North,0,0.0,0.0,1,0.18,,,0.72,WUHU216HW,2013-04-15 11:14:00,
2013-04-15 07:19:00,62.1,5.0,29.95,North,0,0.0,0.0,1,0.17,,,0.75,WUHU216HW,2013-04-15 11:19:00,
2013-04-15 07:25:00,62.1,5.0,29.94,North,0,0.0,0.0,1,0.16,,,0.76,WUHU216HW,2013-04-15 11:25:00,
2013-04-15 07:30:00,61.9,4.9,29.95,North,0,0.0,0.0,1,0.16,,,0.77,WUHU216HW,2013-04-15 11:30:00,
2013-04-15 07:35:00,61.9,4.9,29.94,North,0,0.0,0.0,1,0.16,,,0.77,WUHU216HW,2013-04-15 11:35:00,
2013-04-15 07:40:00,61.7,4.7,29.96,North,0,0.0,0.0,1,0.14,,,0.78,WUHU216HW,2013-04-15 11:40:00,
2013-04-15 07:45:00,61.6,4.5,29.95,North,0,0.0,0.0,1,0.13,,,0.79,WUHU216HW,2013-04-15 11:45:00,
2013-04-15 07:50:00,61.6,4.5,29.96,North,0,0.0,0.0,1,0.13,,,0.81,WUHU216HW,2013-04-15 11:50:00,
2013-04-15 07:55:00,61.6,4.5,29.96,North,0,0.0,0.0,1,0.13,,,0.82,WUHU216HW,2013-04-15 11:55:00,
2013-04-15 08:00:00,61.4,4.4,29.96,North,0,0.0,0.0,1,0.12,,,0.83,WUHU216HW,2013-04-15 12:00:00,
2013-04-15 08:05:00,61.6,4.5,29.96,North,0,0.0,0.0,1,0.12,,,0.84,WUHU216HW,2013-04-15 12:05:00,
2013-04-15 08:24:00,62.3,5.1,29.98,North,0,0.0,0.0,1,0.12,,,0.85,WUHU216HW,2013-04-15 12:24:00,
2013-04-15 08:29:00,62.3,5.1,29.98,North,0,0.0,0.0,1,0.13,,,0.90,WUHU216HW,2013-04-15 12:29:00,
2013-04-15 08:35:00,62.3,5.1,29.99,North,0,0.0,0.0,1,0.13,,,0.91,WUHU216HW,2013-04-15 12:35:00,
2013-04-15 08:40:00,62.1,5.0,29.98,North,0,0.0,0.0,1,0.13,,,0.91,WUHU216HW,2013-04-15 12:40:00,
2013-04-15 08:45:00,62.1,5.0,29.98,North,0,0.0,0.0,1,0.12,,,0.92,WUHU216HW,2013-04-15 12:45:00,
2013-04-15 08:50:00,62.3,5.1,29.99,North,0,0.0,0.0,1,0.10,,,0.92,WUHU216HW,2013-04-15 12:50:00,
2013-04-15 08:55:00,62.3,5.1,29.98,North,0,0.0,0.0,1,0.10,,,0.92,WUHU216HW,2013-04-15 12:55:00,
2013-04-15 09:01:00,62.3,5.1,29.99,North,0,0.0,0.0,1,0.09,,,0.92,WUHU216HW,2013-04-15 13:01:00,
2013-04-15 09:06:00,62.3,5.1,29.99,North,0,0.0,0.0,1,0.08,,,0.92,WUHU216HW,2013-04-15 13:06:00,
2013-04-15 09:11:00,62.3,5.1,29.99,North,0,0.0,0.0,1,0.06,,,0.92,WUHU216HW,2013-04-15 13:11:00,
2013-04-15 09:16:00,62.5,5.2,29.99,North,0,0.0,0.0,1,0.04,,,0.92,WUHU216HW,2013-04-15 13:16:00,
2013-04-15 09:21:00,63.7,6.1,29.99,North,0,0.0,0.0,1,0.03,,,0.92,WUHU216HW,2013-04-15 13:21:00,
2013-04-15 09:26:00,64.6,6.9,29.99,North,0,0.0,0.0,1,0.02,,,0.92,WUHU216HW,2013-04-15 13:26:00,
2013-04-15 09:32:00,65.3,7.4,29.99,North,0,0.0,0.0,1,0.01,,,0.92,WUHU216HW,2013-04-15 13:32:00,
2013-04-15 09:37:00,65.9,7.8,29.99,North,0,0.0,0.0,1,0.01,,,0.92,WUHU216HW,2013-04-15 13:37:00,
2013-04-15 09:42:00,66.6,8.4,30.00,North,0,0.0,0.0,1,0.01,,,0.92,WUHU216HW,2013-04-15 13:42:00,
2013-04-15 09:47:00,67.0,8.6,30.00,North,0,0.0,0.0,1,0.00,,,0.92,WUHU216HW,2013-04-15 13:47:00,
2013-04-15 09:52:00,67.1,8.8,30.00,North,0,0.0,0.0,1,0.00,,,0.92,WUHU216HW,2013-04-15 13:52:00,
2013-04-15 09:57:00,67.0,8.6,30.01,North,0,0.0,0.0,1,0.00,,,0.92,WUHU216HW,2013-04-15 13:57:00,
2013-04-15 10:02:00,67.0,8.6,30.01,North,0,0.0,0.0,1,0.00,,,0.92,WUHU216HW,2013-04-15 14:02:00,
2013-04-15 10:07:00,66.8,8.6,30.01,North,0,0.0,0.0,1,0.00,,,0.92,WUHU216HW,2013-04-15 14:07:00,
2013-04-15 10:13:00,67.9,9.4,30.01,North,0,0.0,0.0,1,0.00,,,0.92,WUHU216HW,2013-04-15 14:13:00,
2013-04-15 10:18:00,68.8,10.1,30.01,North,0,0.0,0.0,1,0.00,,,0.92,WUHU216HW,2013-04-15 14:18:00,
2013-04-15 10:23:00,68.4,9.8,30.01,North,0,0.0,0.0,1,0.00,,,0.92,WUHU216HW,2013-04-15 14:23:00,
2013-04-15 10:28:00,68.8,10.1,30.01,North,0,0.0,0.0,1,0.00,,,0.92,WUHU216HW,2013-04-15 14:28:00,
2013-04-15 10:33:00,69.5,10.5,30.01,North,0,0.0,0.0,1,0.00,,,0.92,WUHU216HW,2013-04-15 14:33:00,
2013-04-15 10:38:00,69.8,10.8,30.02,North,0,0.0,0.0,1,0.00,,,0.92,WUHU216HW,2013-04-15 14:38:00,
2013-04-15 10:43:00,69.5,10.5,30.02,North,0,0.0,0.0,1,0.00,,,0.92,WUHU216HW,2013-04-15 14:43:00,
2013-04-15 10:48:00,68.9,10.2,30.03,North,0,0.0,0.0,1,0.00,,,0.92,WUHU216HW,2013-04-15 14:48:00,
2013-04-15 10:53:00,69.8,10.8,30.03,North,0,0.0,0.0,1,0.00,,,0.92,WUHU216HW,2013-04-15 14:53:00,
2013-04-15 10:58:00,70.2,11.1,30.03,North,0,0.0,0.0,1,0.00,,,0.92,WUHU216HW,2013-04-15 14:58:00,
2013-04-15 11:03:00,70.4,11.3,30.03,North,0,0.0,0.0,1,0.00,,,0.92,WUHU216HW,2013-04-15 15:03:00,
2013-04-15 11:08:00,70.6,11.3,30.04,North,0,0.0,0.0,1,0.00,,,0.92,WUHU216HW,2013-04-15 15:08:00,
2013-04-15 11:13:00,70.9,11.7,30.04,North,0,0.0,0.0,1,0.00,,,0.92,WUHU216HW,2013-04-15 15:13:00,
2013-04-15 11:18:00,71.3,12.0,30.04,North,0,0.0,0.0,1,0.00,,,0.92,WUHU216HW,2013-04-15 15:18:00,
2013-04-15 11:24:00,70.9,11.7,30.05,North,0,0.0,0.0,1,0.00,,,0.92,WUHU216HW,2013-04-15 15:24:00,
2013-04-15 11:29:00,70.9,11.7,30.05,North,0,0.0,0.0,1,0.00,,,0.92,WUHU216HW,2013-04-15 15:29:00,
2013-04-15 11:34:00,71.3,12.0,30.05,North,0,0.0,0.0,1,0.00,,,0.92,WUHU216HW,2013-04-15 15:34:00,
2013-04-15 11:39:00,71.1,11.8,30.06,North,0,0.0,0.0,1,0.00,,,0.92,WUHU216HW,2013-04-15 15:39:00,
2013-04-15 11:44:00,71.3,12.0,30.06,North,0,0.0,0.0,1,0.00,,,0.92,WUHU216HW,2013-04-15 15:44:00,
2013-04-15 11:49:00,71.3,12.0,30.06,North,0,0.0,0.0,2,0.00,,,0.92,WUHU216HW,2013-04-15 15:49:00,
2013-04-15 11:54:00,71.5,12.1,30.06,North,0,0.0,0.0,3,0.00,,,0.92,WUHU216HW,2013-04-15 15:54:00,
2013-04-15 11:59:00,71.6,12.2,30.06,North,0,0.0,0.0,5,0.00,,,0.92,WUHU216HW,2013-04-15 15:59:00,
2013-04-15 12:04:00,71.3,12.0,30.06,North,0,0.0,0.0,6,0.00,,,0.92,WUHU216HW,2013-04-15 16:04:00,
2013-04-15 12:09:00,70.2,12.7,30.06,North,0,0.0,0.0,11,0.00,,,0.92,WUHU216HW,2013-04-15 16:09:00,
2013-04-15 12:14:00,69.8,10.8,30.06,North,0,0.0,0.0,10,0.00,,,0.92,WUHU216HW,2013-04-15 16:14:00,
2013-04-15 12:19:00,69.5,10.5,30.06,North,0,0.0,0.0,9,0.00,,,0.92,WUHU216HW,2013-04-15 16:19:00,
2013-04-15 12:24:00,70.0,11.0,30.06,North,0,0.0,0.0,8,0.00,,,0.92,WUHU216HW,2013-04-15 16:24:00,
2013-04-15 12:30:00,70.0,11.0,30.06,North,0,0.0,0.0,10,0.00,,,0.92,WUHU216HW,2013-04-15 16:30:00,
2013-04-15 12:34:00,69.3,10.5,30.06,North,0,0.0,0.0,10,0.00,,,0.92,WUHU216HW,2013-04-15 16:34:00,
2013-04-15 12:40:00,69.3,10.5,30.06,North,0,0.0,0.0,7,0.00,,,0.92,WUHU216HW,2013-04-15 16:40:00,
2013-04-15 12:45:00,69.1,10.3,30.07,North,0,0.0,0.0,7,0.00,,,0.92,WUHU216HW,2013-04-15 16:45:00,
2013-04-15 12:50:00,69.1,10.3,30.07,North,0,0.0,0.0,7,0.00,,,0.92,WUHU216HW,2013-04-15 16:50:00,
2013-04-15 12:55:00,69.5,10.5,30.07,North,0,0.0,0.0,7,0.00,,,0.92,WUHU216HW,2013-04-15 16:55:00,
2013-04-15 13:00:00,70.2,11.1,30.06,North,0,0.0,0.0,7,0.00,,,0.92,WUHU216HW,2013-04-15 17:00:00,
2013-04-15 13:05:00,71.1,11.8,30.06,North,0,0.0,0.0,8,0.00,,,0.92,WUHU216HW,2013-04-15 17:05:00,
2013-04-15 13:10:00,71.8,12.4,30.06,North,0,0.0,0.0,10,0.00,,,0.92,WUHU216HW,2013-04-15 17:10:00,
2013-04-15 13:15:00,71.6,15.5,30.06,North,0,0.0,0.0,12,0.00,,,0.92,WUHU216HW,2013-04-15 17:15:00,
2013-04-15 13:21:00,71.6,13.9,30.07,North,0,0.0,0.0,11,0.00,,,0.92,WUHU216HW,2013-04-15 17:21:00,
2013-04-15 13:22:00,71.6,15.5,30.07,North,0,0.0,0.0,12,0.00,,,0.92,WUHU216HW,2013-04-15 17:22:00,
2013-04-15 13:23:00,72.0,15.8,30.06,North,0,0.0,0.0,12,0.00,,,0.92,WUHU216HW,2013-04-15 17:23:00,
2013-04-15 13:25:00,72.2,15.9,30.07,North,0,0.0,0.0,12,0.00,,,0.92,WUHU216HW,2013-04-15 17:25:00,
2013-04-15 13:30:00,72.4,17.7,30.07,North,0,0.0,0.0,13,0.00,,,0.92,WUHU216HW,2013-04-15 17:30:00,
2013-04-15 13:35:00,73.1,18.3,30.07,North,0,0.0,0.0,13,0.00,,,0.92,WUHU216HW,2013-04-15 17:35:00,
2013-04-15 13:40:00,73.6,18.7,30.07,North,0,0.0,0.0,13,0.00,,,0.92,WUHU216HW,2013-04-15 17:40:00,
2013-04-15 13:45:00,73.4,23.5,30.07,North,0,0.0,0.0,16,0.00,,,0.92,WUHU216HW,2013-04-15 17:45:00,
2013-04-15 13:50:00,72.9,21.4,30.07,North,0,0.0,0.0,15,0.00,,,0.92,WUHU216HW,2013-04-15 17:50:00,
2013-04-15 13:55:00,72.7,18.0,30.08,North,0,0.0,0.0,13,0.00,,,0.92,WUHU216HW,2013-04-15 17:55:00,
2013-04-15 14:01:00,72.4,21.0,30.08,North,0,0.0,0.0,15,0.00,,,0.92,WUHU216HW,2013-04-15 18:01:00,
2013-04-15 14:06:00,71.8,20.5,30.08,North,0,0.0,0.0,15,0.00,,,0.92,WUHU216HW,2013-04-15 18:06:00,
2013-04-15 14:11:00,71.6,15.5,30.08,North,0,0.0,0.0,12,0.00,,,0.92,WUHU216HW,2013-04-15 18:11:00,
2013-04-15 14:16:00,72.2,15.9,30.08,North,0,0.0,0.0,12,0.00,,,0.92,WUHU216HW,2013-04-15 18:16:00,
2013-04-15 14:21:00,72.2,20.8,30.08,North,0,0.0,0.0,15,0.00,,,0.92,WUHU216HW,2013-04-15 18:21:00,
2013-04-15 14:26:00,72.0,15.8,30.08,North,0,0.0,0.0,12,0.00,,,0.92,WUHU216HW,2013-04-15 18:26:00,
2013-04-15 14:29:00,72.2,17.6,30.08,North,0,0.0,0.0,13,0.00,,,0.92,WUHU216HW,2013-04-15 18:29:00,
2013-04-15 14:30:00,72.4,17.7,30.08,North,0,0.0,0.0,13,0.00,,,0.92,WUHU216HW,2013-04-15 18:30:00,
2013-04-15 14:35:00,72.7,18.0,30.08,North,0,0.0,0.0,13,0.00,,,0.92,WUHU216HW,2013-04-15 18:35:00,
2013-04-15 14:40:00,73.3,18.5,30.09,North,0,0.0,0.0,13,0.00,,,0.92,WUHU216HW,2013-04-15 18:40:00,
2013-04-15 14:45:00,73.8,23.8,30.09,North,0,0.0,0.0,16,0.00,,,0.92,WUHU216HW,2013-04-15 18:45:00,
2013-04-15 14:50:00,72.9,21.4,30.09,North,0,0.0,0.0,15,0.00,,,0.92,WUHU216HW,2013-04-15 18:50:00,
2013-04-15 14:55:00,72.4,17.7,30.09,North,0,0.0,0.0,13,0.00,,,0.92,WUHU216HW,2013-04-15 18:55:00,
2013-04-15 15:00:00,72.0,17.4,30.09,North,0,0.0,0.0,13,0.00,,,0.92,WUHU216HW,2013-04-15 19:00:00,
2013-04-15 15:05:00,71.6,15.5,30.09,North,0,0.0,0.0,12,0.00,,,0.92,WUHU216HW,2013-04-15 19:05:00,
2013-04-15 15:11:00,70.9,15.0,30.09,North,0,0.0,0.0,12,0.00,,,0.92,WUHU216HW,2013-04-15 19:11:00,
2013-04-15 15:16:00,70.4,12.9,30.09,North,0,0.0,0.0,11,0.00,,,0.92,WUHU216HW,2013-04-15 19:16:00,
2013-04-15 15:21:00,70.2,12.7,30.09,North,0,0.0,0.0,11,0.00,,,0.92,WUHU216HW,2013-04-15 19:21:00,
2013-04-15 15:26:00,70.2,11.1,30.09,North,0,0.0,0.0,10,0.00,,,0.92,WUHU216HW,2013-04-15 19:26:00,
2013-04-15 15:31:00,70.0,12.6,30.09,North,0,0.0,0.0,11,0.00,,,0.92,WUHU216HW,2013-04-15 19:31:00,
2013-04-15 15:36:00,70.0,11.0,30.09,North,0,0.0,0.0,10,0.00,,,0.92,WUHU216HW,2013-04-15 19:36:00,
2013-04-15 15:41:00,70.2,11.1,30.09,North,0,0.0,0.0,10,0.00,,,0.92,WUHU216HW,2013-04-15 19:41:00,
2013-04-15 15:47:00,70.2,11.1,30.09,North,0,0.0,0.0,10,0.00,,,0.92,WUHU216HW,2013-04-15 19:47:00,
2013-04-15 15:54:00,70.0,11.0,30.09,North,0,0.0,0.0,10,0.00,,,0.92,WUHU216HW,2013-04-15 19:54:00,
2013-04-15 15:57:00,70.0,11.0,30.09,North,0,0.0,0.0,10,0.00,,,0.92,WUHU216HW,2013-04-15 19:57:00,
2013-04-15 15:58:00,70.2,11.1,30.09,North,0,0.0,0.0,10,0.00,,,0.92,WUHU216HW,2013-04-15 19:58:00,
2013-04-15 16:01:00,70.2,11.1,30.09,North,0,0.0,0.0,10,0.00,,,0.92,WUHU216HW,2013-04-15 20:01:00,
2013-04-15 16:02:00,70.2,12.7,30.09,North,0,0.0,0.0,11,0.00,,,0.92,WUHU216HW,2013-04-15 20:02:00,
2013-04-15 16:03:00,70.2,12.7,30.09,North,0,0.0,0.0,11,0.00,,,0.92,WUHU216HW,2013-04-15 20:03:00,
2013-04-15 16:08:00,70.2,11.1,30.09,North,0,0.0,0.0,10,0.00,,,0.92,WUHU216HW,2013-04-15 20:08:00,
2013-04-15 16:13:00,70.2,11.1,30.09,North,0,0.0,0.0,10,0.00,,,0.92,WUHU216HW,2013-04-15 20:13:00,
2013-04-15 17:00:00,69.5,10.5,30.09,North,0,0.0,0.0,10,0.00,,,0.92,WUHU216HW,2013-04-15 21:00:00,
2013-04-15 17:05:00,69.1,10.3,30.09,North,0,0.0,0.0,10,0.00,,,0.92,WUHU216HW,2013-04-15 21:05:00,
2013-04-15 17:10:00,68.9,10.2,30.09,North,0,0.0,0.0,10,0.00,,,0.92,WUHU216HW,2013-04-15 21:10:00,
2013-04-15 17:15:00,68.9,10.2,30.09,North,0,0.0,0.0,8,0.00,,,0.92,WUHU216HW,2013-04-15 21:15:00,
2013-04-15 17:20:00,68.8,10.1,30.09,North,0,0.0,0.0,9,0.00,,,0.92,WUHU216HW,2013-04-15 21:20:00,
2013-04-15 17:25:00,68.8,10.1,30.09,North,0,0.0,0.0,8,0.00,,,0.92,WUHU216HW,2013-04-15 21:25:00,
2013-04-15 17:30:00,68.9,10.2,30.09,North,0,0.0,0.0,8,0.00,,,0.92,WUHU216HW,2013-04-15 21:30:00,
2013-04-15 17:35:00,69.3,10.5,30.10,North,0,0.0,0.0,8,0.00,,,0.92,WUHU216HW,2013-04-15 21:35:00,
2013-04-15 17:40:00,69.3,10.5,30.10,North,0,0.0,0.0,8,0.00,,,0.92,WUHU216HW,2013-04-15 21:40:00,
2013-04-15 17:45:00,69.5,10.5,30.10,North,0,0.0,0.0,8,0.00,,,0.92,WUHU216HW,2013-04-15 21:45:00,
2013-04-15 17:51:00,69.7,10.7,30.10,North,0,0.0,0.0,8,0.00,,,0.92,WUHU216HW,2013-04-15 21:51:00,
2013-04-15 17:56:00,69.5,10.5,30.10,North,0,0.0,0.0,8,0.00,,,0.92,WUHU216HW,2013-04-15 21:56:00,
2013-04-15 18:01:00,68.8,10.1,30.10,North,0,0.0,0.0,7,0.00,,,0.92,WUHU216HW,2013-04-15 22:01:00,
2013-04-15 18:06:00,68.6,9.9,30.10,North,0,0.0,0.0,7,0.00,,,0.92,WUHU216HW,2013-04-15 22:06:00,
2013-04-15 18:11:00,68.0,9.5,30.11,North,0,0.0,0.0,8,0.00,,,0.92,WUHU216HW,2013-04-15 22:11:00,
2013-04-15 18:16:00,67.9,9.4,30.11,North,0,0.0,0.0,8,0.00,,,0.92,WUHU216HW,2013-04-15 22:16:00,
2013-04-15 18:21:00,67.5,9.1,30.11,North,0,0.0,0.0,7,0.00,,,0.92,WUHU216HW,2013-04-15 22:21:00,
2013-04-15 18:27:00,67.3,9.0,30.11,North,0,0.0,0.0,7,0.00,,,0.92,WUHU216HW,2013-04-15 22:27:00,
2013-04-15 18:32:00,67.5,9.1,30.11,North,0,0.0,0.0,6,0.00,,,0.92,WUHU216HW,2013-04-15 22:32:00,
2013-04-15 18:37:00,67.3,9.0,30.11,North,0,0.0,0.0,6,0.00,,,0.92,WUHU216HW,2013-04-15 22:37:00,
2013-04-15 18:42:00,67.3,9.0,30.11,North,0,0.0,0.0,6,0.00,,,0.92,WUHU216HW,2013-04-15 22:42:00,
2013-04-15 18:47:00,67.3,9.0,30.11,North,0,0.0,0.0,6,0.00,,,0.92,WUHU216HW,2013-04-15 22:47:00,
2013-04-15 18:52:00,67.3,9.0,30.11,North,0,0.0,0.0,6,0.00,,,0.92,WUHU216HW,2013-04-15 22:52:00,
2013-04-15 18:57:00,67.0,8.6,30.11,North,0,0.0,0.0,6,0.00,,,0.92,WUHU216HW,2013-04-15 22:57:00,
2013-04-15 19:02:00,67.0,8.6,30.11,North,0,0.0,0.0,6,0.00,,,0.92,WUHU216HW,2013-04-15 23:02:00,
2013-04-15 19:07:00,66.8,8.6,30.11,North,0,0.0,0.0,5,0.00,,,0.92,WUHU216HW,2013-04-15 23:07:00,
2013-04-15 19:12:00,66.8,8.6,30.11,North,0,0.0,0.0,5,0.00,,,0.92,WUHU216HW,2013-04-15 23:12:00,
2013-04-15 19:17:00,66.8,8.6,30.11,North,0,0.0,0.0,5,0.00,,,0.92,WUHU216HW,2013-04-15 23:17:00,
2013-04-15 19:22:00,66.6,8.4,30.11,North,0,0.0,0.0,5,0.00,,,0.92,WUHU216HW,2013-04-15 23:22:00,
2013-04-15 19:27:00,66.6,8.4,30.11,North,0,0.0,0.0,3,0.00,,,0.92,WUHU216HW,2013-04-15 23:27:00,
2013-04-15 19:32:00,66.4,8.3,30.11,North,0,0.0,0.0,3,0.00,,,0.92,WUHU216HW,2013-04-15 23:32:00,
2013-04-15 19:37:00,66.2,8.1,30.11,North,0,0.0,0.0,3,0.00,,,0.92,WUHU216HW,2013-04-15 23:37:00,
2013-04-15 19:42:00,66.1,7.9,30.12,North,0,0.0,0.0,3,0.00,,,0.92,WUHU216HW,2013-04-15 23:42:00,
2013-04-15 19:47:00,65.9,7.8,30.12,North,0,0.0,0.0,3,0.00,,,0.92,WUHU216HW,2013-04-15 23:47:00,
2013-04-15 19:53:00,65.9,7.8,30.12,North,0,0.0,0.0,3,0.00,,,0.92,WUHU216HW,2013-04-15 23:53:00,
2013-04-15 19:58:00,65.5,7.6,30.12,North,0,0.0,0.0,3,0.00,,,0.92,WUHU216HW,2013-04-15 23:58:00,
2013-04-15 20:03:00,65.5,7.6,30.12,North,0,0.0,0.0,2,0.00,,,0.92,WUHU216HW,2013-04-16 00:03:00,
2013-04-15 20:08:00,65.3,7.4,30.12,North,0,0.0,0.0,2,0.00,,,0.92,WUHU216HW,2013-04-16 00:08:00,
2013-04-15 20:13:00,65.3,7.4,30.13,North,0,0.0,0.0,1,0.00,,,0.92,WUHU216HW,2013-04-16 00:13:00,
2013-04-15 20:18:00,65.2,7.2,30.13,North,0,0.0,0.0,2,0.00,,,0.92,WUHU216HW,2013-04-16 00:18:00,
2013-04-15 20:23:00,65.2,7.2,30.13,North,0,0.0,0.0,1,0.00,,,0.92,WUHU216HW,2013-04-16 00:23:00,
2013-04-15 20:28:00,65.2,7.2,30.13,North,0,0.0,0.0,1,0.00,,,0.92,WUHU216HW,2013-04-16 00:28:00,
2013-04-15 20:33:00,65.2,7.2,30.14,North,0,0.0,0.0,1,0.00,,,0.92,WUHU216HW,2013-04-16 00:33:00,
2013-04-15 20:38:00,65.2,7.2,30.14,North,0,0.0,0.0,1,0.00,,,0.92,WUHU216HW,2013-04-16 00:38:00,
2013-04-15 20:43:00,65.2,7.2,30.14,North,0,0.0,0.0,1,0.00,,,0.92,WUHU216HW,2013-04-16 00:43:00,
2013-04-15 20:48:00,65.2,7.2,30.14,North,0,0.0,0.0,2,0.00,,,0.92,WUHU216HW,2013-04-16 00:48:00,
2013-04-15 20:53:00,65.2,7.2,30.14,North,0,0.0,0.0,1,0.00,,,0.92,WUHU216HW,2013-04-16 00:53:00,
2013-04-15 20:58:00,65.2,7.2,30.14,North,0,0.0,0.0,1,0.00,,,0.92,WUHU216HW,2013-04-16 00:58:00,
2013-04-15 21:04:00,65.0,7.1,30.14,North,0,0.0,0.0,1,0.00,,,0.92,WUHU216HW,2013-04-16 01:04:00,
2013-04-15 21:09:00,64.8,6.9,30.15,North,0,0.0,0.0,1,0.00,,,0.92,WUHU216HW,2013-04-16 01:09:00,
2013-04-15 21:14:00,64.8,6.9,30.15,North,0,0.0,0.0,1,0.00,,,0.92,WUHU216HW,2013-04-16 01:14:00,
2013-04-15 21:19:00,64.6,6.9,30.15,North,0,0.0,0.0,1,0.00,,,0.92,WUHU216HW,2013-04-16 01:19:00,
2013-04-15 21:24:00,64.6,6.9,30.16,North,0,0.0,0.0,1,0.00,,,0.92,WUHU216HW,2013-04-16 01:24:00,
2013-04-15 21:29:00,64.4,6.7,30.16,North,0,0.0,0.0,1,0.00,,,0.92,WUHU216HW,2013-04-16 01:29:00,
2013-04-15 21:34:00,64.4,6.7,30.16,North,0,0.0,0.0,1,0.00,,,0.92,WUHU216HW,2013-04-16 01:34:00,
2013-04-15 21:39:00,64.6,6.9,30.17,North,0,0.0,0.0,1,0.00,,,0.92,WUHU216HW,2013-04-16 01:39:00,
2013-04-15 21:44:00,64.8,6.9,30.17,North,0,0.0,0.0,1,0.00,,,0.92,WUHU216HW,2013-04-16 01:44:00,
2013-04-15 21:49:00,64.8,6.9,30.17,North,0,0.0,0.0,1,0.00,,,0.92,WUHU216HW,2013-04-16 01:49:00,
2013-04-15 21:54:00,64.6,6.9,30.17,North,0,0.0,0.0,1,0.00,,,0.92,WUHU216HW,2013-04-16 01:54:00,
2013-04-15 21:59:00,64.6,6.9,30.17,North,0,0.0,0.0,1,0.00,,,0.92,WUHU216HW,2013-04-16 01:59:00,
2013-04-15 22:04:00,64.4,6.7,30.17,North,0,0.0,0.0,1,0.00,,,0.92,WUHU216HW,2013-04-16 02:04:00,
2013-04-15 22:09:00,64.4,6.7,30.18,North,0,0.0,0.0,1,0.00,,,0.92,WUHU216HW,2013-04-16 02:09:00,
2013-04-15 22:14:00,64.4,6.7,30.18,North,0,0.0,0.0,1,0.00,,,0.92,WUHU216HW,2013-04-16 02:14:00,
2013-04-15 22:19:00,64.4,6.7,30.18,North,0,0.0,0.0,1,0.00,,,0.92,WUHU216HW,2013-04-16 02:19:00,
2013-04-15 22:25:00,64.4,6.7,30.18,North,0,0.0,0.0,1,0.00,,,0.92,WUHU216HW,2013-04-16 02:25:00,
2013-04-15 22:30:00,64.4,6.7,30.18,North,0,0.0,0.0,1,0.00,,,0.92,WUHU216HW,2013-04-16 02:30:00,
2013-04-15 22:35:00,64.4,6.7,30.18,North,0,0.0,0.0,1,0.00,,,0.92,WUHU216HW,2013-04-16 02:35:00,
2013-04-15 22:40:00,64.3,6.6,30.19,North,0,0.0,0.0,1,0.00,,,0.92,WUHU216HW,2013-04-16 02:40:00,
2013-04-15 22:45:00,64.1,6.4,30.19,North,0,0.0,0.0,1,0.00,,,0.92,WUHU216HW,2013-04-16 02:45:00,
2013-04-15 22:50:00,64.1,6.4,30.19,North,0,0.0,0.0,1,0.00,,,0.92,WUHU216HW,2013-04-16 02:50:00,
2013-04-15 22:55:00,64.3,6.6,30.19,North,0,0.0,0.0,1,0.00,,,0.92,WUHU216HW,2013-04-16 02:55:00,
2013-04-15 23:00:00,64.3,6.6,30.19,North,0,0.0,0.0,1,0.00,,,0.92,WUHU216HW,2013-04-16 03:00:00,
2013-04-15 23:05:00,64.3,6.6,30.19,North,0,0.0,0.0,1,0.00,,,0.92,WUHU216HW,2013-04-16 03:05:00,
2013-04-15 23:10:00,64.3,6.6,30.19,North,0,0.0,0.0,1,0.00,,,0.92,WUHU216HW,2013-04-16 03:10:00,
2013-04-15 23:15:00,64.3,6.6,30.19,North,0,0.0,0.0,1,0.00,,,0.92,WUHU216HW,2013-04-16 03:15:00,
2013-04-15 23:20:00,64.3,6.6,30.19,North,0,0.0,0.0,1,0.00,,,0.92,WUHU216HW,2013-04-16 03:20:00,
2013-04-15 23:25:00,64.1,6.4,30.19,North,0,0.0,0.0,1,0.00,,,0.92,WUHU216HW,2013-04-16 03:25:00,
2013-04-15 23:30:00,64.1,6.4,30.19,North,0,0.0,0.0,1,0.00,,,0.92,WUHU216HW,2013-04-16 03:30:00,
2013-04-15 23:36:00,63.9,6.3,30.19,North,0,0.0,0.0,1,0.00,,,0.92,WUHU216HW,2013-04-16 03:36:00,
2013-04-15 23:41:00,63.7,6.1,30.19,North,0,0.0,0.0,1,0.00,,,0.92,WUHU216HW,2013-04-16 03:41:00,
2013-04-15 23:46:00,63.5,6.0,30.19,North,0,0.0,0.0,1,0.00,,,0.92,WUHU216HW,2013-04-16 03:46:00,
2013-04-15 23:51:00,63.4,6.0,30.19,North,0,0.0,0.0,1,0.00,,,0.92,WUHU216HW,2013-04-16 03:51:00,
2013-04-15 23:56:00,63.4,6.0,30.19,North,0,0.0,0.0,1,0.00,,,0.92,WUHU216HW,2013-04-16 03:56:00,